Weather History for Elmendorf AFB, AK

Change the Weather History Date:

Monday, September 2, 2013

  Actual Average Record
Temperature  
Mean Temperature 56 °F -  
Max Temperature 63 °F 59 °F 69 °F (1963)
Min Temperature 51 °F 44 °F 29 °F (1980)
Degree Days  
Heating Degree Days 8    
Growing Degree Days 6 (Base 50)    
Moisture  
Dew Point 51 °F    
Average Humidity 90    
Maximum Humidity 100    
Minimum Humidity 55    
Precipitation  
Precipitation 0.31 in - - ()
Sea Level Pressure  
Sea Level Pressure 29.65 in    
Wind  
Wind Speed 8 mph (NNE)    
Max Wind Speed 13 mph    
Max Gust Speed -    
Visibility 9 miles    
Events Rain    
Averages and records for this station are not official NWS values.
T = Trace of Precipitation, MM = Missing Value Source: NWS Daily Summary

Daily Weather History Graph

Daily Weather History Graph

Search for Another Location

Airport:

Trip Planner

Search our weather history database for the weather conditions in past years. The results will help you decide how hot, cold, wet, or windy it might be!

Date:

Astronomy

Sep. 02, 2013 Rise Set
Actual Time 6:54 AM AKDT 9:01 PM AKDT
Civil Twilight 6:07 AM AKDT 9:47 PM AKDT
Nautical Twilight 5:06 AM AKDT 10:48 PM AKDT
Astronomical Twilight 3:44 AM AKDT 12:08 AM AKDT
Moon 3:53 AM AKDT (9/2) 7:37 PM AKDT (9/2)
Length of Visible Light 15h 40m
Length of Day
14h 06m
Waning Crescent, 7% of the Moon is Illuminated
Sep 2
Waning Crescent
Sep 5
New
Sep 12
First Quarter
Sep 19
Full
Sep 26
Last Quarter

Hourly Weather History & Observations

Time (AKDT) Temp. Dew Point Humidity Pressure Visibility Wind Dir Wind Speed Gust Speed Precip Events Conditions
12:55 AM 51.8 °F 51.4 °F 99% 29.71 in 10.0 mi NNE 9.2 mph - N/A   Overcast
1:55 AM 52.2 °F 51.3 °F 97% 29.71 in 10.0 mi Calm Calm - N/A   Overcast
2:55 AM 53.1 °F 51.4 °F 94% 29.69 in 10.0 mi NNE 6.9 mph - N/A   Overcast
3:06 AM 51.8 °F 51.8 °F 100% 29.69 in 10.0 mi NNE 10.4 mph - N/A   Light Drizzle
3:33 AM 51.8 °F 50.0 °F 94% 29.69 in 10.0 mi NNE 12.7 mph - N/A   Overcast
3:39 AM 51.8 °F 50.0 °F 94% 29.69 in 10.0 mi NNE 11.5 mph - N/A   Light Drizzle
3:49 AM 51.8 °F 50.0 °F 94% 29.68 in 10.0 mi NNE 11.5 mph - N/A   Overcast
3:55 AM 52.5 °F 50.2 °F 92% 29.68 in 10.0 mi NNE 11.5 mph - 0.01 in   Overcast
4:22 AM 53.6 °F 50.0 °F 88% 29.68 in 10.0 mi NNE 11.5 mph - N/A   Light Drizzle
4:55 AM 52.9 °F 50.7 °F 92% 29.68 in 10.0 mi NNE 12.7 mph - 0.00 in Rain Light Rain
5:40 AM 53.6 °F 51.8 °F 94% 29.67 in 6.0 mi NNE 12.7 mph - N/A Rain Rain
5:52 AM 53.6 °F 51.8 °F 94% 29.67 in 7.0 mi NNE 12.7 mph - N/A Rain Rain
5:55 AM 52.7 °F 52.2 °F 98% 29.67 in 8.0 mi NE 10.4 mph - 0.05 in Rain Light Rain
6:33 AM 53.6 °F 51.8 °F 94% 29.68 in 7.0 mi NNE 9.2 mph - N/A Rain Light Rain
6:40 AM 53.6 °F 51.8 °F 94% 29.68 in 8.0 mi North 6.9 mph - N/A Rain Light Rain
6:55 AM 52.9 °F 52.7 °F 99% 29.69 in 8.0 mi NNE 8.1 mph - 0.03 in Rain Light Rain
7:10 AM 53.6 °F 51.8 °F 94% 29.69 in 9.0 mi NNE 9.2 mph - N/A Rain Rain
7:11 AM 53.6 °F 51.8 °F 94% 29.69 in 9.0 mi NNE 8.1 mph - N/A Rain Light Rain
7:12 AM 53.6 °F 51.8 °F 94% 29.69 in 9.0 mi NE 8.1 mph - N/A Rain Light Rain
7:15 AM 53.6 °F 51.8 °F 94% 29.69 in 7.0 mi NE 9.2 mph - N/A Rain Light Rain
7:16 AM 53.6 °F 51.8 °F 94% 29.69 in 7.0 mi NNE 9.2 mph - N/A Rain Light Rain
7:20 AM 53.6 °F 51.8 °F 94% 29.69 in 4.0 mi NE 9.2 mph - N/A Rain Heavy Rain
7:23 AM 51.8 °F 51.8 °F 100% 29.69 in 3.0 mi NE 8.1 mph - N/A Rain Rain
7:30 AM 51.8 °F 51.8 °F 100% 29.68 in 6.0 mi NE 6.9 mph - N/A Rain Light Rain
7:37 AM 51.8 °F 51.8 °F 100% 29.68 in 10.0 mi ENE 6.9 mph - N/A   Overcast
7:53 AM 51.8 °F 51.8 °F 100% 29.68 in 10.0 mi Calm Calm - N/A Rain Light Rain
7:55 AM 52.5 °F 52.2 °F 99% 29.68 in 10.0 mi Calm Calm - 0.05 in Rain Light Rain
8:19 AM 51.8 °F 51.8 °F 100% 29.67 in 10.0 mi NNE 5.8 mph - N/A   Overcast
8:47 AM 53.6 °F 53.6 °F 100% 29.68 in 10.0 mi Calm Calm - N/A   Overcast
8:55 AM 52.7 °F 52.7 °F 100% 29.68 in 10.0 mi North 9.2 mph - 0.00 in   Light Drizzle
9:08 AM 53.6 °F 53.6 °F 100% 29.68 in 10.0 mi North 9.2 mph - N/A   Overcast
9:21 AM 53.6 °F 53.6 °F 100% 29.68 in 10.0 mi NNE 10.4 mph - N/A Rain Light Rain
9:36 AM 53.6 °F 53.6 °F 100% 29.67 in 10.0 mi NNE 12.7 mph - N/A   Overcast
9:52 AM 53.6 °F 53.6 °F 100% 29.68 in 10.0 mi NNE 10.4 mph - N/A Rain Light Rain
9:55 AM 53.1 °F 52.7 °F 99% 29.68 in 10.0 mi NE 10.4 mph - 0.01 in Rain Light Rain
10:27 AM 53.6 °F 53.6 °F 100% 29.66 in 10.0 mi NE 9.2 mph - N/A   Overcast
10:55 AM 55.8 °F 51.1 °F 84% 29.64 in 10.0 mi NNE 9.2 mph - 0.01 in   Mostly Cloudy
11:55 AM 55.8 °F 52.9 °F 90% 29.64 in 10.0 mi North 12.7 mph - N/A   Partly Cloudy
12:55 PM 56.8 °F 51.1 °F 81% 29.64 in 10.0 mi NNE 11.5 mph - N/A   Scattered Clouds
1:55 PM 59.4 °F 50.0 °F 71% 29.65 in 10.0 mi NNE 5.8 mph - N/A   Mostly Cloudy
2:06 PM 59.0 °F 50.0 °F 72% 29.64 in 10.0 mi NNE 9.2 mph - N/A   Light Drizzle
2:11 PM 59.0 °F 51.8 °F 77% 29.64 in 10.0 mi NNE 3.5 mph - N/A   Overcast
2:14 PM 59.0 °F 51.8 °F 77% 29.64 in 10.0 mi Calm Calm - N/A   Light Drizzle
2:43 PM 62.6 °F 46.4 °F 55% 29.64 in 10.0 mi East 4.6 mph - N/A   Mostly Cloudy
2:55 PM 59.4 °F 51.6 °F 76% 29.63 in 10.0 mi NNE 10.4 mph - 0.00 in   Mostly Cloudy
3:04 PM 59.0 °F 50.0 °F 72% 29.63 in 10.0 mi NNE 9.2 mph - N/A Rain Light Rain
3:55 PM 61.9 °F 46.6 °F 57% 29.61 in 10.0 mi SE 3.5 mph - 0.00 in   Light Drizzle
4:02 PM 62.6 °F 48.2 °F 59% 29.61 in 10.0 mi Variable 4.6 mph - N/A   Overcast
4:07 PM 62.6 °F 50.0 °F 63% 29.61 in 10.0 mi NE 3.5 mph - N/A   Light Drizzle
4:55 PM 57.6 °F 52.5 °F 83% 29.62 in 8.0 mi NNE 9.2 mph - 0.02 in Rain Rain
5:45 PM 57.2 °F 51.8 °F 82% 29.62 in 10.0 mi Calm Calm - N/A Rain Light Rain
5:46 PM 57.2 °F 51.8 °F 82% 29.62 in 10.0 mi Calm Calm - N/A Rain Light Rain
5:55 PM 56.3 °F 53.1 °F 89% 29.62 in 10.0 mi NE 3.5 mph - 0.04 in Rain Light Rain
6:55 PM 54.1 °F 52.5 °F 94% 29.62 in 10.0 mi NE 10.4 mph - 0.03 in Rain Light Rain
7:55 PM 53.6 °F 52.3 °F 95% 29.60 in 10.0 mi NNE 9.2 mph - 0.03 in Rain Light Rain
8:55 PM 54.9 °F 50.5 °F 85% 29.51 in 10.0 mi East 9.2 mph - 0.03 in Rain Light Rain
9:13 PM 55.4 °F 51.8 °F 88% 29.51 in 10.0 mi NW 11.5 mph - N/A   Scattered Clouds
9:55 PM 53.6 °F 51.3 °F 92% 29.55 in 10.0 mi North 12.7 mph - 0.00 in   Overcast
10:55 PM 54.1 °F 50.0 °F 86% 29.49 in 10.0 mi NE 12.7 mph - N/A   Mostly Cloudy
11:55 PM 53.1 °F 50.9 °F 92% 29.52 in 10.0 mi NNE 12.7 mph - N/A   Overcast